Date String (YYYY-MM-DD hh:mm:ss) UTC,Instrument flags,Ambient pressure (hPa),Sample flow (lpm),Bypass flow (lpm),Sample temperature (°C),Ambient temperature (°C),ASC tube jacket temperature (°C),LED temperature (°C),Box temperature (°C),Sample RH (%),Span deviation,Mass concentration (μg/m³),Mass concentration (μg/m³),Mass concentration (μg/m³)
DateTimeUTC,F1_M11,P_M11,Q1_M11,Q2_M11,T1_M11,T2_M11,T3_M11,T4_M11,T5_M11,U1_M11,ZSPAN_M11,X2_M11,X0_M11,X1_M11
2023-05-04 16:00:00,,0825.7,5.00,0.00,27.6,25.8,00.0,36.2,29.1,18.5,0000.0,0005.09,0016.16,0003.36
2023-05-04 16:01:00,,0825.7,5.00,0.00,27.5,25.7,00.0,36.1,29.0,18.4,0000.0,0005.05,0016.39,0003.34
2023-05-04 16:02:00,,0825.7,5.00,0.00,27.5,25.7,00.0,36.1,29.0,18.7,0000.0,0005.00,0016.52,0003.33
2023-05-04 16:03:00,,0825.7,5.00,0.00,27.5,25.7,00.0,36.1,29.0,19.1,0000.0,0004.99,0017.04,0003.31
2023-05-04 16:04:00,,0825.8,5.00,0.00,27.5,25.7,00.0,36.1,28.9,19.0,0000.0,0004.97,0016.27,0003.28
2023-05-04 16:05:00,,0825.7,4.99,0.00,27.4,25.7,00.0,36.1,28.9,19.2,0000.0,0005.02,0015.64,0003.26
2023-05-04 16:06:00,,0825.6,5.00,0.00,27.4,25.7,00.0,36.0,28.9,18.9,0000.0,0005.04,0015.26,0003.24
2023-05-04 16:07:00,,0825.5,5.00,0.00,27.4,25.7,00.0,36.0,29.0,19.2,0000.0,0005.05,0015.15,0003.22
2023-05-04 16:08:00,,0825.4,5.00,0.00,27.4,25.7,00.0,36.0,29.0,19.4,0000.0,0004.99,0014.71,0003.19
2023-05-04 16:09:00,,0825.4,5.01,0.00,27.4,25.8,00.0,36.0,29.0,19.6,0000.0,0004.86,0013.81,0003.16
2023-05-04 16:10:00,,0825.4,5.00,0.00,27.4,25.9,00.0,36.0,29.1,19.8,0000.0,0004.83,0013.42,0003.12
2023-05-04 16:11:00,,0825.3,5.00,0.00,27.5,25.9,00.0,36.0,29.1,20.1,0000.0,0004.79,0013.24,0003.11
2023-05-04 16:12:00,,0825.3,5.00,0.00,27.5,26.0,00.0,36.0,29.1,20.1,0000.0,0004.76,0012.78,0003.07
2023-05-04 16:13:00,,0825.3,4.99,0.00,27.5,26.0,00.0,36.0,29.1,19.0,0000.0,0004.66,0012.01,0002.99
2023-05-04 16:14:00,,0825.2,5.00,0.00,27.5,26.0,00.0,36.0,29.1,18.7,0000.0,0004.55,0011.39,0002.91
2023-05-04 16:15:00,,0825.3,5.01,0.00,27.5,26.0,00.0,36.0,29.1,19.1,0000.0,0004.45,0011.05,0002.85
2023-05-04 16:16:00,,0825.2,5.00,0.00,27.5,25.9,00.0,36.0,29.1,19.3,0000.0,0004.33,0010.58,0002.79
2023-05-04 16:17:00,,0825.2,5.00,0.00,27.5,25.9,00.0,35.9,29.1,19.1,0000.0,0004.27,0010.45,0002.76
2023-05-04 16:18:00,,0825.3,5.00,0.00,27.5,25.9,00.0,35.9,29.0,18.6,0000.0,0004.18,0010.06,0002.72
2023-05-04 16:19:00,,0825.3,5.00,0.00,27.5,25.9,00.0,35.9,29.0,18.0,0000.0,0004.14,0009.99,0002.65
2023-05-04 16:20:00,,0825.3,5.00,0.00,27.4,25.9,00.0,35.9,29.0,17.9,0000.0,0004.10,0009.67,0002.61
2023-05-04 16:21:00,,0825.3,5.00,0.00,27.4,25.8,00.0,35.9,29.0,17.8,0000.0,0004.06,0009.51,0002.60
2023-05-04 16:22:00,,0825.3,5.00,0.00,27.4,25.8,00.0,35.9,29.0,17.7,0000.0,0003.98,0009.30,0002.56
2023-05-04 16:23:00,,0825.3,5.00,0.00,27.4,25.8,00.0,35.9,28.9,17.8,0000.0,0003.89,0009.23,0002.54
2023-05-04 16:24:00,,0825.2,4.99,0.00,27.4,25.7,00.0,35.9,28.9,17.7,0000.0,0003.88,0009.32,0002.54
2023-05-04 16:25:00,,0825.3,5.00,0.00,27.3,25.7,00.0,35.9,28.9,17.9,0000.0,0003.89,0009.04,0002.56
2023-05-04 16:26:00,,0825.2,5.00,0.00,27.3,25.7,00.0,35.9,29.0,18.3,0000.0,0003.89,0008.93,0002.57
2023-05-04 16:27:00,,0825.2,5.00,0.00,27.4,25.8,00.0,35.9,29.0,17.8,0000.0,0003.89,0008.93,0002.55
2023-05-04 16:28:00,,0825.3,4.99,0.00,27.4,25.8,00.0,35.9,29.0,18.2,0000.0,0003.86,0008.54,0002.54
2023-05-04 16:29:00,,0825.2,4.99,0.00,27.4,25.9,00.0,35.8,29.0,18.4,0000.0,0003.82,0008.25,0002.54
2023-05-04 16:30:00,,0825.2,5.00,0.00,27.4,25.9,00.0,35.9,29.0,18.7,0000.0,0003.82,0008.73,0002.56
2023-05-04 16:31:00,,0825.3,5.01,0.00,27.4,26.0,00.0,35.9,29.0,18.4,0000.0,0003.85,0009.44,0002.59
2023-05-04 16:32:00,,0825.2,5.01,0.00,27.4,26.0,00.0,35.9,29.0,18.6,0000.0,0003.85,0009.64,0002.59
2023-05-04 16:33:00,,0825.2,5.01,0.00,27.5,26.0,00.0,35.9,29.0,19.3,0000.0,0003.83,0009.79,0002.58
2023-05-04 16:34:00,,0825.3,5.01,0.00,27.5,26.1,00.0,35.9,29.1,18.8,0000.0,0003.87,0009.64,0002.61
2023-05-04 16:35:00,,0825.3,5.00,0.00,27.5,26.1,00.0,35.9,29.1,19.1,0000.0,0003.91,0009.53,0002.62
2023-05-04 16:36:00,,0825.3,4.99,0.00,27.5,26.1,00.0,35.9,29.1,19.5,0000.0,0003.90,0009.66,0002.63
2023-05-04 16:37:00,,0825.2,4.99,0.00,27.5,26.1,00.0,35.9,29.1,18.6,0000.0,0003.95,0009.79,0002.66
2023-05-04 16:38:00,,0825.2,4.99,0.00,27.5,26.1,00.0,35.9,29.2,18.7,0000.0,0003.96,0010.06,0002.69
2023-05-04 16:39:00,,0825.2,4.99,0.00,27.5,26.2,00.0,35.9,29.1,18.7,0000.0,0003.99,0010.22,0002.69
2023-05-04 16:40:00,,0825.3,5.01,0.00,27.6,26.2,00.0,35.9,29.1,19.2,0000.0,0004.07,0010.49,0002.70
2023-05-04 16:41:00,,0825.3,5.00,0.00,27.6,26.2,00.0,35.9,29.2,19.3,0000.0,0004.08,0010.21,0002.72
2023-05-04 16:42:00,,0825.2,5.00,0.00,27.6,26.2,00.0,35.9,29.2,18.8,0000.0,0004.06,0009.61,0002.72
2023-05-04 16:43:00,,0825.2,5.00,0.00,27.6,26.2,00.0,35.9,29.2,19.0,0000.0,0004.07,0009.37,0002.72
2023-05-04 16:44:00,,0825.2,5.00,0.00,27.6,26.2,00.0,35.9,29.2,18.5,0000.0,0004.12,0009.44,0002.73
2023-05-04 16:45:00,,0825.2,5.00,0.00,27.6,26.3,00.0,36.0,29.2,18.5,0000.0,0004.12,0009.43,0002.73
2023-05-04 16:46:00,,0825.1,5.00,0.00,27.6,26.3,00.0,36.0,29.3,18.3,0000.0,0004.17,0009.53,0002.74
2023-05-04 16:47:00,,0825.1,5.00,0.00,27.6,26.3,00.0,36.0,29.3,18.5,0000.0,0004.20,0009.47,0002.75
2023-05-04 16:48:00,,0825.1,4.99,0.00,27.7,26.3,00.0,36.0,29.3,18.4,0000.0,0004.16,0009.37,0002.73
2023-05-04 16:49:00,,0825.1,4.99,0.00,27.7,26.3,00.0,36.0,29.2,18.2,0000.0,0004.18,0009.17,0002.73
2023-05-04 16:50:00,,0825.1,5.02,0.00,27.7,26.3,00.0,36.0,29.3,18.2,0000.0,0004.18,0009.24,0002.75
2023-05-04 16:51:00,,0825.1,5.00,0.00,27.7,26.3,00.0,36.0,29.3,18.4,0000.0,0004.17,0009.16,0002.75
2023-05-04 16:52:00,,0825.1,5.00,0.00,27.7,26.3,00.0,36.0,29.2,18.1,0000.0,0004.16,0008.89,0002.74
2023-05-04 16:53:00,,0825.1,5.00,0.00,27.7,26.3,00.0,36.0,29.2,18.0,0000.0,0004.19,0008.98,0002.75
2023-05-04 16:54:00,,0825.1,5.00,0.00,27.7,26.3,00.0,36.0,29.3,18.3,0000.0,0004.20,0009.08,0002.77
2023-05-04 16:55:00,,0825.1,5.00,0.00,27.7,26.3,00.0,36.0,29.3,18.8,0000.0,0004.20,0009.02,0002.80
2023-05-04 16:56:00,,0825.1,5.00,0.00,27.7,26.3,00.0,36.1,29.3,18.7,0000.0,0004.20,0009.04,0002.83
2023-05-04 16:57:00,,0825.1,5.00,0.00,27.8,26.3,00.0,36.1,29.3,18.7,0000.0,0004.18,0009.58,0002.84
2023-05-04 16:58:00,,0825.2,5.00,0.00,27.7,26.3,00.0,36.1,29.3,18.4,0000.0,0004.14,0009.65,0002.84
2023-05-04 16:59:00,,0825.1,5.00,0.00,27.7,26.3,00.0,36.1,29.4,17.9,0000.0,0004.15,0009.79,0002.87
